Flag for Germany Weather past 2 weeks in Senftenberg, Brandenburg, Germany

Now
53 °F

Clear.


Feels Like: 53 °F
Forecast: 53 / 68 °F
Wind: 3 mph from Southwest

Location: Cottbus

Current Time: Jul 30, 2015 at 12:54:50 AM

Latest Report: Jul 29, 2015 at 11:00 PM


Visibility: 25 mi

Pressure: 29.79 "Hg

Humidity: 91%

Dew point: 50 °F

Location of SenftenbergLocation

Historic Weather in Senftenberg — Graph

°F

Senftenberg temperature yesterday

Maximum temperature yesterday: 70 °F (at 5:00 PM)
Minimum temperature yesterday: 53 °F (at 11:00 PM)
Average temperature yesterday: 62 °F

Past Weeks' High & Low Weather Summary

 TemperatureHumidityPressure
High90 °F (Jul 17, 7:00 PM)100% (Jul 15, 6:00 AM)30.10 "Hg (Jul 15, 6:00 AM)
Low53 °F (Jul 29, 11:00 PM)30% (Jul 25, 5:00 PM)29.58 "Hg (Jul 27, 3:00 PM)
Average70 °F67%29.87 "Hg
* Reported Jul 14 11:00 PM — Jul 29 11:00 PM, Senftenberg, Weather by CustomWeather, © 2015

Note: Actual official high and low records may vary slightly from our data, if they occured in-between our weather recording intervals... More about our weather records

Advertising

Senftenberg weather history for previous 24 hours

 ConditionsComfort  
Time TempWeatherWind HumidityBarometerVisibility
11:00 PM
Wed, Jul 29
53 °FClear.3 mph91%29.79 "Hg25 mi
10:00 PM54 °FClear.3 mph92%29.78 "Hg22 mi
9:00 PM55 °FPassing clouds.3 mph92%29.75 "Hg22 mi
8:00 PM56 °FLight rain. Low clouds.5 mph84%29.74 "Hg31 mi
7:00 PM67 °FOvercast.5 mph47%29.68 "Hg31 mi
6:00 PM69 °FScattered clouds.6 mph41%29.69 "Hg34 mi
5:00 PM70 °FPartly sunny.8 mph40%29.69 "Hg25 mi
4:00 PM70 °FPassing clouds.8 mph42%29.70 "Hg19 mi
3:00 PM67 °FOvercast.6 mph49%29.71 "Hg37 mi
2:00 PM68 °FPartly sunny.6 mph48%29.71 "Hg31 mi
1:00 PM66 °FOvercast.6 mph52%29.73 "Hg34 mi
12:00 PM65 °FOvercast.7 mph52%29.74 "Hg28 mi
11:00 AM65 °FOvercast.7 mph51%29.75 "Hg31 mi
10:00 AM65 °FScattered clouds.8 mph49%29.75 "Hg13 mi
9:00 AM64 °FSunny.7 mph47%29.76 "Hg15 mi
8:00 AM62 °FPassing clouds.3 mph60%29.77 "Hg34 mi
7:00 AM60 °FOvercast.2 mph64%29.76 "Hg37 mi
6:00 AM59 °FOvercast.2 mph66%29.76 "Hg34 mi
5:00 AM59 °FOvercast.3 mph63%29.76 "Hg43 mi
4:00 AM57 °FOvercast.2 mph71%29.76 "Hg25 mi
3:00 AM58 °FOvercast.2 mph66%29.75 "Hg40 mi
2:00 AM61 °FOvercast.3 mph57%29.75 "Hg40 mi
1:00 AM62 °FOvercast.3 mph59%29.75 "Hg43 mi
Weather by CustomWeather, © 2015

See weather overviewHow to use our weather pages